�������l�o���
Date,Time,MP-1(��Sv/h),MP-2(��Sv/h),MP-3(��Sv/h),MP-4(��Sv/h),MP-5(��Sv/h),MP-6(��Sv/h),MP-7(��Sv/h),MP-8(��Sv/h),����,����(m/s),���J
2022/01/18,00:00,0.581,0.874,0.555,1.068,0.750,0.351,0.611,0.579,�k��,4.1,��
2022/01/18,00:10,0.581,0.874,0.556,1.069,0.749,0.352,0.612,0.579,�k��,2.9,��
2022/01/18,00:20,0.582,0.873,0.555,1.068,0.750,0.352,0.612,0.580,�k��,2.6,��
2022/01/18,00:30,0.581,0.876,0.553,1.071,0.751,0.351,0.610,0.579,���k��,2.8,��
2022/01/18,00:40,0.581,0.874,0.555,1.068,0.751,0.352,0.612,0.579,���k��,4.5,�L
2022/01/18,00:50,0.582,0.875,0.555,1.072,0.749,0.352,0.612,0.581,��,3.8,�L
2022/01/18,01:00,0.582,0.875,0.556,1.070,0.749,0.354,0.611,0.580,�쐼,6.1,��
2022/01/18,01:10,0.581,0.874,0.556,1.067,0.749,0.353,0.611,0.581,�쐼,9.9,��
2022/01/18,01:20,0.582,0.873,0.554,1.070,0.751,0.352,0.612,0.581,�쐼,10.2,��
2022/01/18,01:30,0.581,0.873,0.554,1.069,0.749,0.354,0.612,0.579,���쐼,7.2,��
2022/01/18,01:40,0.580,0.872,0.553,1.069,0.751,0.351,0.610,0.580,�k��,7.7,��
2022/01/18,01:50,0.583,0.871,0.554,1.069,0.749,0.353,0.612,0.580,�k��,8.2,�L
2022/01/18,02:00,0.581,0.874,0.554,1.066,0.749,0.352,0.611,0.579,�k��,6.7,�L
2022/01/18,02:10,0.583,0.870,0.556,1.067,0.749,0.352,0.611,0.579,�k��,5.6,��
2022/01/18,02:20,0.580,0.872,0.554,1.068,0.750,0.350,0.612,0.582,�k�k��,6.1,��
2022/01/18,02:30,0.581,0.873,0.552,1.068,0.749,0.351,0.610,0.580,�k�k��,7.7,��
2022/01/18,02:40,0.581,0.871,0.552,1.068,0.749,0.349,0.611,0.579,�k,7.4,��
2022/01/18,02:50,0.580,0.871,0.551,1.066,0.747,0.350,0.610,0.579,�k�k��,7.3,��
2022/01/18,03:00,0.580,0.870,0.552,1.068,0.745,0.349,0.611,0.579,�k�k��,6.6,��
2022/01/18,03:10,0.580,0.870,0.549,1.066,0.748,0.349,0.610,0.580,�k��,7.2,��
2022/01/18,03:20,0.581,0.868,0.550,1.065,0.747,0.349,0.611,0.579,�k�k��,9.8,��
2022/01/18,03:30,0.578,0.869,0.551,1.065,0.745,0.348,0.611,0.579,�k��,10.5,��
2022/01/18,03:40,0.578,0.870,0.551,1.065,0.747,0.347,0.610,0.581,�k��,9.2,��
2022/01/18,03:50,0.580,0.867,0.549,1.066,0.747,0.349,0.611,0.579,�k��,8.5,��
2022/01/18,04:00,0.579,0.867,0.549,1.063,0.746,0.348,0.611,0.580,�k��,6.9,��
2022/01/18,04:10,0.579,0.869,0.550,1.062,0.746,0.347,0.610,0.579,�k��,8.8,��
2022/01/18,04:20,0.578,0.869,0.550,1.065,0.747,0.349,0.612,0.579,�k��,7.4,��
2022/01/18,04:30,0.578,0.869,0.549,1.064,0.745,0.349,0.610,0.578,�k��,7.6,��
2022/01/18,04:40,0.577,0.869,0.549,1.063,0.745,0.349,0.611,0.579,�k�k��,7.1,��
2022/01/18,04:50,0.579,0.869,0.552,1.065,0.746,0.351,0.610,0.579,�k�k��,6.4,��
2022/01/18,05:00,0.576,0.868,0.551,1.065,0.745,0.350,0.612,0.578,�k�k��,6.0,��
2022/01/18,05:10,0.578,0.869,0.550,1.065,0.745,0.350,0.610,0.580,�k�k��,4.6,��
2022/01/18,05:20,0.579,0.869,0.553,1.064,0.743,0.350,0.611,0.578,�k�k��,4.4,��
2022/01/18,05:30,0.578,0.867,0.549,1.064,0.745,0.351,0.610,0.579,�k�k��,4.1,��
2022/01/18,05:40,0.577,0.867,0.549,1.067,0.744,0.350,0.611,0.580,�k��,4.4,��
2022/01/18,05:50,0.577,0.867,0.551,1.063,0.746,0.351,0.610,0.580,�k��,6.2,��
2022/01/18,06:00,0.578,0.868,0.549,1.062,0.744,0.349,0.610,0.579,�k��,5.6,��
2022/01/18,06:10,0.577,0.870,0.550,1.063,0.743,0.351,0.610,0.579,�k��,5.9,��
2022/01/18,06:20,0.577,0.869,0.549,1.065,0.746,0.349,0.611,0.579,�k��,6.3,��
2022/01/18,06:30,0.577,0.868,0.549,1.065,0.744,0.350,0.610,0.588,���k��,4.4,��
2022/01/18,06:40,0.576,0.865,0.550,1.064,0.747,0.350,0.609,0.579,�k��,4.0,��
2022/01/18,06:50,0.577,0.869,0.550,1.063,0.745,0.351,0.610,0.578,�k��,3.5,��
2022/01/18,07:00,0.576,0.868,0.549,1.063,0.745,0.350,0.610,0.578,���k��,4.3,��
2022/01/18,07:10,0.577,0.868,0.549,1.062,0.744,0.350,0.611,0.578,���k��,4.4,��
2022/01/18,07:20,0.576,0.869,0.549,1.064,0.744,0.351,0.610,0.579,��,3.8,��
2022/01/18,07:30,0.577,0.868,0.551,1.064,0.743,0.350,0.610,0.578,���k��,3.3,��
2022/01/18,07:40,0.577,0.866,0.549,1.061,0.743,0.350,0.609,0.579,��,3.2,��
2022/01/18,07:50,0.578,0.867,0.550,1.065,0.743,0.352,0.609,0.578,���k��,3.1,��
2022/01/18,08:00,0.577,0.868,0.550,1.065,0.745,0.351,0.608,0.579,��,2.0,��
2022/01/18,08:10,0.577,0.869,0.548,1.063,0.745,0.349,0.610,0.580,���쐼,1.4,��
2022/01/18,08:20,0.576,0.868,0.562,1.065,0.742,0.350,0.610,0.579,��,1.5,��
2022/01/18,08:30,0.576,0.867,0.551,1.063,0.744,0.350,0.609,0.578,�k��,1.1,��
2022/01/18,08:40,0.576,0.868,0.549,1.064,0.744,0.351,0.609,0.579,�k,0.9,��
2022/01/18,08:50,0.579,0.867,0.550,1.063,0.745,0.350,0.611,0.577,-,CALM,��
2022/01/18,09:00,0.576,0.868,0.549,1.065,0.744,0.350,0.609,0.580,�쐼,0.6,��
2022/01/18,09:10,0.577,0.868,0.551,1.066,0.745,0.349,0.610,0.580,��,1.9,��
2022/01/18,09:20,0.579,0.868,0.550,1.065,0.745,0.349,0.609,0.579,�쐼,2.3,��
2022/01/18,09:30,0.578,0.870,0.548,1.065,0.746,0.349,0.609,0.577,���쐼,4.5,��
2022/01/18,09:40,0.578,0.870,0.546,1.063,0.745,0.351,0.611,0.578,���쐼,4.1,��
2022/01/18,09:50,0.579,0.869,0.549,1.064,0.747,0.351,0.610,0.578,��,4.3,��
2022/01/18,10:00,0.578,0.870,0.548,1.063,0.745,0.351,0.610,0.580,��,3.7,��
2022/01/18,10:10,0.578,0.869,0.550,1.066,0.744,0.351,0.612,0.579,���k��,6.0,��
2022/01/18,10:20,0.576,0.869,0.550,1.065,0.743,0.350,0.610,0.579,���k��,5.4,��
2022/01/18,10:30,0.578,0.870,0.552,1.066,0.745,0.351,0.609,0.579,��,8.2,��
2022/01/18,10:40,0.581,0.866,0.551,1.065,0.747,0.351,0.610,0.580,��,8.1,��
2022/01/18,10:50,0.580,0.868,0.550,1.064,0.745,0.350,0.608,0.579,�k�k��,3.5,��
2022/01/18,11:00,0.581,0.869,0.552,1.067,0.748,0.350,0.609,0.579,�k�k��,4.3,��
2022/01/18,11:10,0.580,0.868,0.552,1.066,0.747,0.350,0.612,0.581,��,2.3,��
2022/01/18,11:20,0.581,0.866,0.553,1.065,0.747,0.352,0.609,0.579,��,4.5,��
2022/01/18,11:30,0.579,0.870,0.554,1.067,0.746,0.350,0.611,0.579,���k��,5.8,��
2022/01/18,11:40,0.581,0.866,0.554,1.066,0.747,0.351,0.610,0.580,���k��,5.9,��
2022/01/18,11:50,0.581,0.869,0.554,1.067,0.749,0.351,0.611,0.580,��,4.5,��
2022/01/18,12:00,0.580,0.869,0.553,1.067,0.748,0.351,0.611,0.579,�k��,3.4,��
2022/01/18,12:10,0.580,0.869,0.554,1.064,0.748,0.351,0.611,0.580,��,7.5,��
2022/01/18,12:20,0.579,0.869,0.553,1.067,0.748,0.350,0.611,0.580,��,11.1,��
2022/01/18,12:30,0.579,0.870,0.554,1.066,0.748,0.351,0.612,0.581,��,11.3,��
2022/01/18,12:40,0.580,0.873,0.552,1.066,0.749,0.350,0.612,0.580,���쐼,10.8,��
2022/01/18,12:50,0.581,0.872,0.553,1.069,0.748,0.351,0.612,0.581,��,9.6,��
2022/01/18,13:00,0.580,0.872,0.555,1.067,0.747,0.350,0.612,0.583,���k��,13.8,��
2022/01/18,13:10,0.580,0.872,0.553,1.067,0.748,0.351,0.613,0.582,���k��,12.0,��
2022/01/18,13:20,0.581,0.872,0.552,1.066,0.749,0.351,0.612,0.579,���k��,13.5,��
2022/01/18,13:30,0.581,0.870,0.551,1.068,0.750,0.350,0.610,0.580,��,12.4,��
2022/01/18,13:40,0.579,0.871,0.552,1.068,0.750,0.349,0.612,0.581,���k��,11.3,��
2022/01/18,13:50,0.582,0.873,0.552,1.069,0.751,0.350,0.611,0.582,��,11.7,��
2022/01/18,14:00,0.581,0.873,0.552,1.065,0.749,0.349,0.612,0.583,���k��,11.1,��
2022/01/18,14:10,0.582,0.871,0.553,1.065,0.752,0.348,0.612,0.582,��,11.8,��
2022/01/18,14:20,0.581,0.872,0.552,1.069,0.751,0.349,0.613,0.582,���k��,8.9,��
2022/01/18,14:30,0.581,0.872,0.551,1.066,0.752,0.350,0.611,0.582,��,9.1,��
2022/01/18,14:40,0.581,0.870,0.553,1.069,0.750,0.352,0.612,0.583,��,9.5,��
2022/01/18,14:50,0.583,0.871,0.554,1.069,0.750,0.350,0.613,0.582,��,7.9,��
2022/01/18,15:00,0.582,0.874,0.556,1.069,0.750,0.352,0.612,0.582,��,10.6,��
2022/01/18,15:10,0.582,0.873,0.555,1.071,0.751,0.353,0.610,0.583,��,9.8,��
2022/01/18,15:20,0.582,0.875,0.555,1.068,0.749,0.352,0.611,0.584,��,8.4,��
2022/01/18,15:30,0.582,0.872,0.556,1.068,0.750,0.350,0.612,0.583,��,9.1,��
2022/01/18,15:40,0.582,0.873,0.555,1.069,0.750,0.351,0.612,0.582,��,7.2,��
2022/01/18,15:50,0.582,0.874,0.553,1.068,0.749,0.352,0.612,0.582,��,6.9,��
2022/01/18,16:00,0.581,0.875,0.553,1.068,0.752,0.350,0.612,0.581,��,7.3,��
2022/01/18,16:10,0.581,0.873,0.555,1.070,0.750,0.351,0.612,0.584,��,6.6,��
2022/01/18,16:20,0.581,0.873,0.554,1.070,0.749,0.351,0.611,0.584,��,8.2,��
2022/01/18,16:30,0.580,0.873,0.554,1.069,0.752,0.351,0.612,0.582,��,8.1,��
2022/01/18,16:40,0.580,0.872,0.553,1.071,0.749,0.351,0.612,0.583,��,7.3,��
2022/01/18,16:50,0.579,0.874,0.554,1.068,0.749,0.351,0.612,0.583,��,7.1,��
2022/01/18,17:00,0.580,0.871,0.553,1.068,0.748,0.350,0.612,0.583,��,5.7,��
2022/01/18,17:10,0.579,0.872,0.551,1.065,0.748,0.351,0.613,0.581,��,4.1,��
2022/01/18,17:20,0.578,0.873,0.550,1.069,0.749,0.350,0.613,0.582,��,4.7,��
2022/01/18,17:30,0.581,0.872,0.552,1.069,0.750,0.351,0.612,0.583,��,5.2,��
2022/01/18,17:40,0.580,0.874,0.553,1.068,0.750,0.351,0.610,0.582,��,5.2,��
2022/01/18,17:50,0.578,0.874,0.552,1.069,0.752,0.351,0.610,0.581,��,4.3,��
2022/01/18,18:00,0.579,0.873,0.554,1.071,0.751,0.351,0.609,0.581,��,5.0,��
2022/01/18,18:10,0.580,0.874,0.555,1.069,0.752,0.350,0.611,0.581,���k��,6.6,��
2022/01/18,18:20,0.580,0.873,0.554,1.069,0.751,0.350,0.611,0.581,��,6.6,��
2022/01/18,18:30,0.581,0.873,0.554,1.069,0.751,0.351,0.610,0.582,���k��,7.9,��
2022/01/18,18:40,0.580,0.873,0.553,1.070,0.751,0.351,0.611,0.580,���k��,8.9,��
2022/01/18,18:50,0.581,0.876,0.557,1.069,0.750,0.353,0.613,0.582,���k��,10.4,�L
2022/01/18,19:00,0.583,0.876,0.554,1.071,0.752,0.353,0.612,0.583,���k��,9.2,�L
2022/01/18,19:10,0.581,0.874,0.558,1.071,0.752,0.353,0.611,0.581,���k��,5.8,��
2022/01/18,19:20,0.584,0.876,0.555,1.072,0.752,0.353,0.612,0.581,���k��,4.1,��
2022/01/18,19:30,0.582,0.876,0.555,1.072,0.754,0.352,0.612,0.581,�k��,3.4,��
2022/01/18,19:40,0.581,0.875,0.555,1.070,0.750,0.351,0.612,0.581,�k�k��,3.5,��
2022/01/18,19:50,0.582,0.874,0.555,1.071,0.752,0.353,0.612,0.581,�k�k��,4.7,��
2022/01/18,20:00,0.581,0.875,0.555,1.071,0.750,0.351,0.610,0.581,�k�k��,5.4,��
2022/01/18,20:10,0.581,0.876,0.556,1.069,0.750,0.352,0.610,0.580,�k��,5.6,��
2022/01/18,20:20,0.581,0.872,0.555,1.070,0.753,0.350,0.612,0.581,�k��,4.0,��
2022/01/18,20:30,0.581,0.875,0.554,1.068,0.752,0.350,0.610,0.579,�k�k��,3.3,��
2022/01/18,20:40,0.580,0.873,0.553,1.069,0.749,0.350,0.610,0.580,�k,3.3,��
2022/01/18,20:50,0.581,0.872,0.553,1.070,0.751,0.352,0.610,0.581,�k�k��,5.5,��
2022/01/18,21:00,0.579,0.872,0.553,1.070,0.748,0.351,0.612,0.580,�k��,8.5,��
2022/01/18,21:10,0.581,0.873,0.552,1.070,0.749,0.352,0.610,0.580,�k��,8.3,��
2022/01/18,21:20,0.580,0.875,0.553,1.069,0.750,0.351,0.611,0.580,�k��,5.6,��
2022/01/18,21:30,0.578,0.872,0.553,1.068,0.748,0.350,0.611,0.579,�k��,6.7,��
2022/01/18,21:40,0.578,0.872,0.550,1.069,0.750,0.350,0.611,0.579,�k��,6.8,��
2022/01/18,21:50,0.579,0.872,0.553,1.067,0.749,0.350,0.611,0.581,�k��,6.1,��
2022/01/18,22:00,0.577,0.872,0.552,1.068,0.749,0.352,0.610,0.579,�k��,5.6,��
2022/01/18,22:10,0.579,0.872,0.550,1.067,0.748,0.350,0.610,0.580,�k��,2.6,��
2022/01/18,22:20,0.579,0.871,0.551,1.065,0.750,0.350,0.609,0.579,�k��,3.8,��
2022/01/18,22:30,0.579,0.871,0.551,1.068,0.748,0.350,0.611,0.579,�k,4.3,��
2022/01/18,22:40,0.579,0.871,0.553,1.067,0.750,0.349,0.609,0.579,�k,6.0,��
2022/01/18,22:50,0.580,0.871,0.554,1.068,0.748,0.350,0.610,0.579,�k�k��,6.0,��
2022/01/18,23:00,0.579,0.872,0.552,1.067,0.749,0.350,0.610,0.580,�k�k��,4.4,��
2022/01/18,23:10,0.579,0.873,0.553,1.070,0.749,0.351,0.610,0.580,�k�k��,4.9,��
2022/01/18,23:20,0.579,0.871,0.553,1.068,0.748,0.352,0.611,0.578,�k�k��,5.7,��
2022/01/18,23:30,0.579,0.872,0.553,1.068,0.749,0.350,0.611,0.580,�k�k��,5.2,��
2022/01/18,23:40,0.580,0.873,0.551,1.067,0.749,0.350,0.614,0.580,�k�k��,6.4,��
2022/01/18,23:50,0.580,0.872,0.552,1.070,0.749,0.350,0.610,0.579,�k�k��,7.3,��
